WA6MHA-11 Weather Reports


Display with metric or nautical units.
time (UTC)temp
F
wind
direction
speed
MPH
gust
MPH
rain 1hr
in
rain 24hr
in
rain mn
in
humidity
%
barometer
mb
20260904005113 84 171 4.0 6.0 0.00 0.00 0.00 27 1013.0
20260904004711 84 173 6.0 9.0 0.00 0.00 0.00 27 1012.9
20260904004309 85 185 4.0 6.0 0.00 0.00 0.00 27 1012.9
20260904003909 84 173 4.0 7.0 0.00 0.00 0.00 26 1012.9
20260904003106 84 182 7.0 10.0 0.00 0.00 0.00 26 1013.0
20260904001902 84 150 6.0 10.0 0.00 0.00 0.00 27 1013.0
20260904001501 84 180 6.0 8.0 0.00 0.00 0.00 27 1013.0
20260904001059 85 159 5.0 8.0 0.00 0.00 0.00 27 1013.1
20260904000658 85 168 4.0 7.0 0.00 0.00 0.00 26 1013.1
20260904000257 85 144 3.0 9.0 0.00 0.00 0.00 26 1013.2
20260903235855 85 175 5.0 9.0 0.00 0.00 0.00 27 1013.2
20260903235454 86 195 5.0 8.0 0.00 0.00 0.00 27 1013.1
20260903235056 86 180 7.0 10.0 0.00 0.00 0.00 26 1013.1
20260903234251 86 173 6.0 10.0 0.00 0.00 0.00 26 1013.2
20260903233849 87 173 4.0 10.0 0.00 0.00 0.00 26 1013.2
20260903233447 88 112 4.0 11.0 0.00 0.00 0.00 26 1013.2
20260903233046 88 180 11.0 11.0 0.00 0.00 0.00 26 1013.2
20260903232645 88 191 8.0 9.0 0.00 0.00 0.00 26 1013.3
20260903232244 89 199 5.0 11.0 0.00 0.00 0.00 26 1013.3
20260903231843 89 155 4.0 10.0 0.00 0.00 0.00 26 1013.4
20260903231040 89 166 5.0 9.0 0.00 0.00 0.00 26 1013.4
20260903230639 90 184 4.0 8.0 0.00 0.00 0.00 26 1013.5
20260903230238 90 211 6.0 9.0 0.00 0.00 0.00 26 1013.5
20260903225837 89 184 6.0 10.0 0.00 0.00 0.00 26 1013.6
20260903225435 89 180 4.0 9.0 0.00 0.00 0.00 26 1013.5
20260903225034 89 197 6.0 12.0 0.00 0.00 0.00 26 1013.6
20260903224632 90 177 7.0 9.0 0.00 0.00 0.00 26 1013.6
20260903224231 90 176 8.0 15.0 0.00 0.00 0.00 26 1013.6
20260903223830 90 75 2.0 9.0 0.00 0.00 0.00 26 1013.6
20260903223428 89 131 3.0 9.0 0.00 0.00 0.00 26 1013.7
20260903223028 90 160 6.0 8.0 0.00 0.00 0.00 26 1013.8
20260903222626 90 196 4.0 10.0 0.00 0.00 0.00 26 1013.9
20260903222226 90 168 5.0 8.0 0.00 0.00 0.00 26 1013.9
20260903221823 91 162 6.0 10.0 0.00 0.00 0.00 25 1013.9
20260903221422 91 193 10.0 10.0 0.00 0.00 0.00 25 1013.9
20260903220620 91 173 4.0 9.0 0.00 0.00 0.00 25 1014.1
20260903220221 91 182 6.0 11.0 0.00 0.00 0.00 25 1014.1
20260903215014 92 202 1.0 7.0 0.00 0.00 0.00 25 1014.2
20260903214613 92 205 7.0 9.0 0.00 0.00 0.00 25 1014.3
20260903214212 91 106 3.0 7.0 0.00 0.00 0.00 25 1014.2
20260903213811 91 69 1.0 10.0 0.00 0.00 0.00 25 1014.2
20260903213008 90 148 7.0 11.0 0.00 0.00 0.00 25 1014.3
20260903212608 91 189 8.0 12.0 0.00 0.00 0.00 25 1014.4
20260903211001 90 106 6.0 6.0 0.00 0.00 0.00 25 1014.4
20260903210159 89 135 7.0 13.0 0.00 0.00 0.00 25 1014.4
20260903205759 91 167 6.0 0.0 0.00 0.00 0.00 25 1014.5
20260903204956 91 135 5.0 6.0 0.00 0.00 0.00 25 1014.5
20260903204553 91 198 6.0 9.0 0.00 0.00 0.00 25 1014.5
20260903203751 91 221 5.0 8.0 0.00 0.00 0.00 25 1014.5
20260903203352 91 177 8.0 10.0 0.00 0.00 0.00 25 1014.5
20260903202949 91 191 6.0 8.0 0.00 0.00 0.00 25 1014.5
20260903195738 90 168 6.0 7.0 0.00 0.00 0.00 26 1014.8
20260903195338 89 261 2.0 8.0 0.00 0.00 0.00 26 1014.8
20260903194936 88 103 1.0 10.0 0.00 0.00 0.00 25 1014.8
20260903194536 85 180 5.0 7.0 0.00 0.00 0.00 26 1014.9
20260903193732 86 128 10.0 10.0 0.00 0.00 0.00 26 1014.9
20260903192929 88 184 3.0 5.0 0.00 0.00 0.00 26 1015.0
20260903192528 86 162 1.0 9.0 0.00 0.00 0.00 26 1015.1
20260903191726 86 141 6.0 9.0 0.00 0.00 0.00 26 1015.2
20260903191325 86 180 4.0 7.0 0.00 0.00 0.00 27 1015.3
20260903190922 86 162 2.0 9.0 0.00 0.00 0.00 27 1015.4
20260903185719 85 126 2.0 9.0 0.00 0.00 0.00 27 1015.5
20260903185318 87 187 3.0 8.0 0.00 0.00 0.00 27 1015.6
20260903184919 86 195 7.0 7.0 0.00 0.00 0.00 28 1015.7
20260903184516 85 184 4.0 6.0 0.00 0.00 0.00 28 1015.6
20260903184114 84 7 0.0 7.0 0.00 0.00 0.00 28 1015.6
20260903183714 82 139 8.0 12.0 0.00 0.00 0.00 1015.7
20260903183312 82 139 7.0 10.0 0.00 0.00 0.00 28 1015.8
20260903182910 82 151 8.0 11.0 0.00 0.00 0.00 28 1015.9
20260903182107 84 137 11.0 11.0 0.00 0.00 0.00 29 1016.0
20260903181709 83 130 7.0 11.0 0.00 0.00 0.00 29 1016.1
20260903181309 83 130 6.0 8.0 0.00 0.00 0.00 29 1016.0
20260903180101 81 130 5.0 7.0 0.00 0.00 0.00 30 1016.0
20260903175659 81 132 4.0 8.0 0.00 0.00 0.00 30 1016.1
20260903175258 83 114 8.0 9.0 0.00 0.00 0.00 31 1016.1
20260903174857 85 186 2.0 7.0 0.00 0.00 0.00 31 1016.1
20260903174456 85 195 3.0 7.0 0.00 0.00 0.00 31 1016.1
20260903174056 84 221 3.0 7.0 0.00 0.00 0.00 32 1016.1
20260903173656 83 135 3.0 8.0 0.00 0.00 0.00 32 1016.2
20260903173254 82 227 3.0 4.0 0.00 0.00 0.00 33 1016.2
20260903172450 82 108 2.0 7.0 0.00 0.00 0.00 33 1016.2
20260903172048 81 182 7.0 7.0 0.00 0.00 0.00 34 1016.2
20260903170844 78 139 6.0 9.0 0.00 0.00 0.00 35 1016.3
20260903170443 77 137 9.0 10.0 0.00 0.00 0.00 36 1016.3
20260903170042 77 130 5.0 11.0 0.00 0.00 0.00 36 1016.2
20260903165640 79 182 4.0 7.0 0.00 0.00 0.00 37 1016.2
20260903165243 78 140 5.0 6.0 0.00 0.00 0.00 37 1016.2
20260903164838 77 299 1.0 4.0 0.00 0.00 0.00 37 1016.1
20260903164035 76 225 3.0 7.0 0.00 0.00 0.00 38 1016.1
20260903163233 76 171 2.0 8.0 0.00 0.00 0.00 38 1016.1
20260903162832 76 90 7.0 7.0 0.00 0.00 0.00 39 1016.1
20260903162430 76 216 2.0 3.0 0.00 0.00 0.00 40 1016.2
20260903162033 75 146 5.0 8.0 0.00 0.00 0.00 39 1016.2
20260903161226 76 155 1.0 3.0 0.00 0.00 0.00 40 1016.2
20260903160825 75 255 1.0 5.0 0.00 0.00 0.00 40 1016.2
20260903160424 75 135 2.0 3.0 0.00 0.00 0.00 41 1016.1
20260903160023 75 150 2.0 6.0 0.00 0.00 0.00 41 1016.1
20260903155220 73 60 2.0 5.0 0.00 0.00 0.00 41 1016.1
20260903154818 73 141 5.0 9.0 0.00 0.00 0.00 41 1016.2
20260903154016 73 94 2.0 5.0 0.00 0.00 0.00 42 1016.2
20260903153615 74 99 4.0 6.0 0.00 0.00 0.00 42 1016.3
20260903153213 74 157 0.0 3.0 0.00 0.00 0.00 43 1016.2
20260903152812 73 35 0.0 1.0 0.00 0.00 0.00 43 1016.2
20260903152411 72 135 1.0 3.0 0.00 0.00 0.00 43 1016.1
20260903152011 71 135 4.0 5.0 0.00 0.00 0.00 43 1016.2
20260903151609 70 67 2.0 5.0 0.00 0.00 0.00 43 1016.2
20260903150808 69 132 4.0 5.0 0.00 0.00 0.00 44 1016.1
20260903150404 69 162 2.0 3.0 0.00 0.00 0.00 44 1016.2
20260903145202 67 220 1.0 5.0 0.00 0.00 0.00
20260903143956 66 139 1.0 4.0 0.00 0.00 0.00 48 1016.0
20260903142352 65 137 0.0 4.0 0.00 0.00 0.00 46 1015.9
20260903141950 65 83 3.0 4.0 0.00 0.00 0.00 45 1015.8
20260903141148 64 85 0.0 4.0 0.00 0.00 0.00 46 1015.8
20260903140746 64 135 4.0 4.0 0.00 0.00 0.00 46 1015.8
20260903135141 63 58 1.0 1.0 0.00 0.00 0.00 45 1015.7
20260903134342 62 85 0.0 1.0 0.00 0.00 0.00 45 1015.5
20260903133939 62 83 1.0 0.0 0.00 0.00 0.00 45 1015.5
20260903133135 62 299 0.0 0.0 0.00 0.00 0.00 45 1015.5
20260903132733 62 81 0.0 0.0 0.00 0.00 0.00 45 1015.5
20260903132332 62 83 0.0 0.0 0.00 0.00 0.00 46 1015.7
20260903131932 62 85 0.0 1.0 0.00 0.00 0.00 46 1015.4
20260903130727 61 36 0.0 1.0 0.00 0.00 0.00 46 1015.6
20260903130326 61 35 0.0 0.0 0.00 0.00 0.00 46 1015.6
20260903125926 61 274 0.0 0.0 0.00 0.00 0.00 46 1015.6
20260903125523 61 288 0.0 1.0 0.00 0.00 0.00 46 1015.6
20260903125123 61 265 0.0 1.0 0.00 0.00 0.00 47 1015.6
20260903124721 60 274 0.0 1.0 0.00 0.00 0.00 46 1015.7
20260903124319 60 328 0.0 0.0 0.00 0.00 0.00 46 1015.7
20260903123918 60 337 0.0 1.0 0.00 0.00 0.00 46 1015.6
20260903122715 58 42 0.0 1.0 0.00 0.00 0.00 46 1015.7
20260903121912 58 235 0.0 0.0 0.00 0.00 0.00 46 1015.6
20260903121510 58 288 0.0 0.0 0.00 0.00 0.00 46 1015.6
20260903121109 58 279 0.0 0.0 0.00 0.00 0.00 46 1015.6
20260903120307 58 292 0.0 0.0 0.00 0.00 0.00 46 1015.6
20260903115905 58 274 0.0 0.0 0.00 0.00 0.00 46 1015.7
20260903115103 58 274 0.0 0.0 0.00 0.00 0.00 46 1015.7
20260903114254 58 330 0.0 0.0 0.00 0.00 0.00 46 1015.7
20260903113452 58 292 0.0 0.0 0.00 0.00 0.00 46 1015.7
20260903113053 58 279 0.0 0.0 0.00 0.00 0.00 46 1015.7
20260903112649 58 310 0.0 0.0 0.00 0.00 0.00 46 1015.7
20260903112248 58 283 0.0 0.0 0.00 0.00 0.00 46 1015.7
20260903111847 58 297 0.0 0.0 0.00 0.00 0.00 46 1015.7
20260903111446 58 279 0.0 0.0 0.00 0.00 0.00 46 1015.7
20260903110238 58 231 0.0 1.0 0.00 0.00 0.00 46 1015.7
20260903105836 58 274 0.0 1.0 0.00 0.00 0.00 45 1015.7
20260903105834 58 274 0.0 1.0 0.00 0.00 0.00 45 1015.7
20260903105032 58 279 0.0 0.0 0.00 0.00 0.00 45 1015.8
20260903104631 58 290 0.0 0.0 0.00 0.00 0.00 45 1015.8
20260903104230 98 231 0.0 0.0 0.00 0.00 0.00 45 1015.9
20260903104128 58 202 0.0 0.0 0.00 0.00 0.00 45 1015.8
20260903103828 58 202 0.0 0.0 0.00 0.00 0.00 45 1015.8
20260903103426 58 189 0.0 0.0 0.00 0.00 0.00 45 1015.8
20260903103025 58 184 0.0 0.0 0.00 0.00 0.00 45 1015.9
20260903102624 58 230 0.0 0.0 0.00 0.00 0.00 45 1015.8
20260903102223 58 234 0.0 0.0 0.00 0.00 0.00 45 1015.8
20260903101821 58 230 0.0 1.0 0.00 0.00 0.00 45 1015.9
20260903101019 58 274 1.0 1.0 0.00 0.00 0.00 45 1015.8
20260903100620 58 283 0.0 0.0 0.00 0.00 0.00 45 1016.0
20260903100216 58 227 0.0 0.0 0.00 0.00 0.00 44 1015.9
20260903095815 58 288 0.0 0.0 0.00 0.00 0.00 44 1015.9
20260903095413 58 252 0.0 0.0 0.00 0.00 0.00 44 1015.9
20260903094613 58 283 0.0 0.0 0.00 0.00 0.00 44 1015.9
20260903093407 58 283 0.0 1.0 0.00 0.00 0.00 44 1016.0
20260903092605 59 242 0.0 1.0 0.00 0.00 0.00 44 1016.1
20260903092205 59 283 0.0 0.0 0.00 0.00 0.00 44 1016.1
20260903091803 59 288 0.0 0.0 0.00 0.00 0.00 44 1016.2
20260903091000 59 279 0.0 0.0 0.00 0.00 0.00 43 1016.1
20260903090558 59 279 0.0 0.0 0.00 0.00 0.00 43 1016.2
20260903090157 59 308 0.0 0.0 0.00 0.00 0.00 43 1016.2
20260903085756 59 279 0.0 0.0 0.00 0.00 0.00 43 1016.2
20260903085355 59 288 0.0 0.0 0.00 0.00 0.00 43 1016.3
20260903084552 59 279 0.0 0.0 0.00 0.00 0.00 43 1016.3
20260903084150 59 279 0.0 0.0 0.00 0.00 0.00 43 1016.4
20260903083749 59 274 0.0 0.0 0.00 0.00 0.00 43 1016.5
20260903083348 59 274 0.0 0.0 0.00 0.00 0.00 43 1016.4
20260903082949 60 299 0.0 0.0 0.00 0.00 0.00 43 101.6
20260903082546 60 310 0.0 0.0 0.00 0.00 0.00 43 1016.5
20260903082144 60 279 1.0 1.0 0.00 0.00 0.00 42 1016.5
20260903080940 60 228 0.0 0.0 0.00 0.00 0.00 42 1016.5
20260903080539 60 236 0.0 0.0 0.00 0.00 0.00 42 1016.5
20260903080138 60 274 0.0 0.0 0.00 0.00 0.00 42 1016.5
20260903075335 60 288 0.0 0.0 0.00 0.00 0.00 42 1016.7
20260903074125 60 299 0.0 0.0 0.00 0.00 0.00 42 1016.5
20260903073724 60 299 0.0 0.0 0.00 0.00 0.00 41 1016.4
20260903073326 61 274 0.0 0.0 0.00 0.00 0.00 41 1016.5
20260903072921 61 279 0.0 0.0 0.00 0.00 0.00 41 1016.4
20260903072119 61 279 0.0 0.0 0.00 0.00 0.00 41 1016.5
20260903071718 61 279 0.0 0.0 0.00 0.00 0.00 41 1016.4
20260903071317 61 283 0.0 0.0 0.00 0.00 0.00 41 1016.4
20260903070915 61 283 0.0 0.0 0.00 0.00 0.00 41 1016.4
20260903070515 61 279 0.0 0.0 0.00 0.00 0.00 41 1016.4
20260903070115 62 270 0.0 0.0 0.00 0.00 0.00 41 1016.6
20260903070113 62 270 0.0 0.0 0.00 0.00 0.00 41 1016.6
20260903065711 62 230 0.0 0.0 0.00 0.00 0.00 41 1016.6
20260903065310 62 274 0.0 0.0 0.00 0.00 0.00 41 1016.4
20260903064909 62 342 0.0 0.0 0.00 0.00 0.00 40 1016.4
20260903064106 62 283 0.0 0.0 0.00 0.00 0.00 40 1016.4
20260903063706 62 288 0.0 0.0 0.00 0.00 0.00
20260903063704 62 288 0.0 0.0 0.00 0.00 0.00 40 1016.4
20260903063303 62 279 0.0 0.0 0.00 0.00 0.00 40 1016.4
20260903062903 62 274 0.0 0.0 0.00 0.00 0.00 40 1016.3
20260903062501 63 182 0.0 0.0 0.00 0.00 0.00 40 1016.3
20260903062100 63 235 0.0 0.0 0.00 0.00 0.00 40 1016.3
20260903061658 63 279 0.0 0.0 0.00 0.00 0.00 39 1016.3
20260903061257 63 306 0.0 0.0 0.00 0.00 0.00 39 1016.2
20260903060856 63 310 0.0 0.0 0.00 0.00 0.00 39 1016.1
20260903060456 63 306 0.0 0.0 0.00 0.00 0.00 39 1016.1
20260903060053 63 213 0.0 0.0 0.00 0.00 0.00 39 1016.1
20260903055653 63 299 0.0 0.0 0.00 0.00 0.00 39 1016.2
20260903055250 64 301 0.0 0.0 0.00 0.00 0.00 39 1016.1
20260903054849 64 310 0.0 0.0 0.00 0.00 0.00 39 1016.1
20260903054448 64 312 0.0 0.0 0.00 0.00 0.00 39 1016.2
20260903054047 64 301 0.0 0.0 0.00 0.00 0.00 38 1016.2
20260903053646 64 297 0.0 0.0 0.00 0.00 0.00 38 1016.1
20260903053244 64 306 0.0 0.0 0.00 0.00 0.00 38 1016.1
20260903052843 64 306 0.0 0.0 0.00 0.00 0.00 38 1016.1
20260903052441 64 306 0.0 0.0 0.00 0.00 0.00 38 1016.1
20260903052040 64 303 0.0 2.0 0.00 0.00 0.00 38 1016.2
20260903051640 65 42 1.0 1.0 0.00 0.00 0.00 38 1016.3
20260903051238 66 283 0.0 1.0 0.00 0.00 0.00 37 1016.2
20260903050837 66 333 0.0 1.0 0.00 0.00 0.00 37 1016.2
20260903050435 66 135 0.0 1.0 0.00 0.00 0.00 37 1016.2
20260903044830 67 306 0.0 0.0 0.00 0.00 0.00 36 1016.2
20260903044429 67 315 0.0 0.0 0.00 0.00 0.00 36 1016.3
20260903043228 67 290 0.0 1.0 0.00 0.00 0.00 36 1016.2
20260903042824 67 306 0.0 1.0 0.00 0.00 0.00 35 1016.2
20260903042022 68 315 0.0 1.0 0.00 0.00 0.00 35 1016.2
20260903041619 68 297 0.0 1.0 0.00 0.00 0.00 35 1016.1
20260903040820 69 135 0.0 0.0 0.00 0.00 0.00 34 1016.2
20260903035614 70 283 0.0 0.0 0.00 0.00 0.00 34 1016.0
20260903034811 70 186 0.0 0.0 0.00 0.00 0.00 34 1016.0
20260903034409 71 279 0.0 1.0 0.00 0.00 0.00 33 1015.9
20260903034010 71 279 0.0 1.0 0.00 0.00 0.00 33 1015.9
20260903033608 71 274 1.0 1.0 0.00 0.00 0.00 33 1015.8
20260903033207 71 274 0.0 1.0 0.00 0.00 0.00 33 1015.8
20260903032804 72 270 1.0 2.0 0.00 0.00 0.00 32 1015.7
20260903032403 72 274 1.0 2.0 0.00 0.00 0.00 32 1015.7
20260903031601 72 306 2.0 3.0 0.00 0.00 0.00 32 1015.6
20260903031200 73 274 1.0 3.0 0.00 0.00 0.00 32 1015.5
20260903025554 74 279 1.0 4.0 0.00 0.00 0.00 31 1015.5
20260903024752 75 274 1.0 1.0 0.00 0.00 0.00 31 1015.5
20260903024351 75 306 0.0 0.0 0.00 0.00 0.00 31 1015.4
20260903023949 75 339 0.0 1.0 0.00 0.00 0.00 30 1015.4
20260903023547 75 315 0.0 2.0 0.00 0.00 0.00 30 1015.3
20260903023146 76 285 1.0 2.0 0.00 0.00 0.00 29 1015.4
20260903022745 76 19 0.0 1.0 0.00 0.00 0.00 29 1015.4
20260903022345 76 42 1.0 1.0 0.00 0.00 0.00 28 1015.3
20260903021943 76 38 1.0 1.0 0.00 0.00 0.00 28 1015.3
20260903021541 76 45 1.0 2.0 0.00 0.00 0.00 28 1015.2
20260903021141 77 38 2.0 2.0 0.00 0.00 0.00
20260903020338 77 83 2.0 4.0 0.00 0.00 0.00 26 1015.2
20260903015937 78 99 3.0 4.0 0.00 0.00 0.00 26 1015.1
20260903015133 79 76 3.0 4.0 0.00 0.00 0.00 25 1015.2
20260903014735 79 55 3.0 4.0 0.00 0.00 0.00 25 1015.1
20260903013930 80 29 1.0 4.0 0.00 0.00 0.00 24 1015.2
20260903013529 80 72 4.0 6.0 0.00 0.00 0.00 24 1015.1
20260903013127 81 65 3.0 5.0 0.00 0.00 0.00 24 1015.1
20260903012725 81 110 3.0 4.0 0.00 0.00 0.00 23 1015.1
20260903012326 81 117 3.0 5.0 0.00 0.00 0.00 23 1015.1
20260903011522 81 101 3.0 6.0 0.00 0.00 0.00 22 1015.1
20260903011121 82 85 5.0 7.0 0.00 0.00 0.00 22 1015.1
20260903010720 83 90 6.0 7.0 0.00 0.00 0.00 22 1015.2
20260903010358 83 139 5.0 5.0 0.00 0.00 0.00 22 1015.1
20260903010318 83 139 5.0 5.0 0.00 0.00 0.00 22 1015.1
20260903005918 84 141 4.0 6.0 0.00 0.00 0.00 22 1015.1
20260903005516 83 157 3.0 9.0 0.00 0.00 0.00 21 1015.1